Weather reports worldwide

Advertisment
Piarco Int. Airport, Trinidad / Tobago (78970): temperature & dewpoint: 13.11.2018 16:00:00 - 19.11.2018 16:00:00 (AST)Piarco Int. Airport, Trinidad / Tobago (78970): wind speed: 13.11.2018 16:00:00 - 19.11.2018 16:00:00 (AST)Piarco Int. Airport, Trinidad / Tobago (78970): wind direction: 13.11.2018 16:00:00 - 19.11.2018 16:00:00 (AST)Piarco Int. Airport, Trinidad / Tobago (78970): reduced air pressure: 13.11.2018 16:00:00 - 19.11.2018 16:00:00 (AST)Piarco Int. Airport, Trinidad / Tobago (78970): visibility: 13.11.2018 16:00:00 - 19.11.2018 16:00:00 (AST)
Date & Time tt [°C] td [°C] ff [km/h] ff [kn] dd ppp [hPa] vv [km]
19.11.2018 16:00:00 31,0 24,0 18 10 ESE - 8
19.11.2018 15:00:00 32,0 23,0 16 9 SE - 10
19.11.2018 14:00:00 31,7 21,9 18 10 ESE 1010,7 20
19.11.2018 13:00:00 33,0 22,0 21 11 ESE - 10
19.11.2018 12:00:00 31,0 22,0 26 14 E - 10
19.11.2018 11:00:00 30,7 23,4 22 12 E 1013,3 18
19.11.2018 10:00:00 29,0 24,0 13 7 SE - 10
19.11.2018 09:00:00 29,0 24,0 18 10 ESE - 10
19.11.2018 08:00:00 27,8 24,1 9 5 E 1013,3 18
19.11.2018 07:00:00 26,0 24,0 0 0 N - 10
19.11.2018 06:00:00 25,0 24,0 0 0 N - 10
19.11.2018 05:00:00 24,9 24,2 0 0 N 1011,5 10
19.11.2018 04:00:00 25,0 24,0 0 0 N - 10
19.11.2018 03:00:00 24,0 24,0 0 0 N - 10
19.11.2018 02:00:00 24,0 23,5 0 0 N 1011,4 20
19.11.2018 01:00:00 24,0 23,0 0 0 N - 10
19.11.2018 00:00:00 24,0 23,0 0 0 N - 10
18.11.2018 23:00:00 25,0 23,0 0 0 N - 10
18.11.2018 22:00:00 25,0 24,0 0 0 N - 10
18.11.2018 21:00:00 25,0 24,0 9 5 ESE - 10
18.11.2018 20:00:00 25,3 23,2 0 0 N 1012,5 20
18.11.2018 19:00:00 27,0 24,0 16 9 ESE - 10
18.11.2018 18:00:00 27,0 24,0 8 4 SE - 10
18.11.2018 17:00:00 28,8 23,4 21 11 ESE 1011,0 18
18.11.2018 16:00:00 30,0 23,0 21 11 ESE - 10
18.11.2018 15:00:00 30,0 23,0 22 12 SE - 10
18.11.2018 14:00:00 30,7 23,3 24 13 ESE 1011,3 16
18.11.2018 13:00:00 31,0 24,0 26 14 ESE - 10
18.11.2018 12:00:00 30,0 24,0 22 12 SE - 10
18.11.2018 11:00:00 28,3 23,5 15 8 ESE 1014,2 16
18.11.2018 10:00:00 29,0 25,0 13 7 ESE - 10
18.11.2018 09:00:00 26,0 24,0 15 8 SE - 10
18.11.2018 08:00:00 26,2 24,5 9 5 SE 1013,9 10
18.11.2018 07:00:00 25,0 24,0 5 3 ESE - 10
18.11.2018 06:00:00 25,0 24,0 15 8 E - 10
18.11.2018 05:00:00 24,3 23,9 0 0 N 1011,7 10
18.11.2018 04:00:00 25,0 24,0 0 0 N - 10
18.11.2018 03:00:00 25,0 24,0 5 3 SE - 10
18.11.2018 02:00:00 24,9 23,7 8 4 E 1011,2 8
18.11.2018 01:00:00 25,0 24,0 5 3 SE - 10
18.11.2018 00:00:00 25,0 24,0 5 3 SE - 10
17.11.2018 23:00:00 24,9 22,5 8 4 E 1013,0 20
17.11.2018 22:00:00 26,0 24,0 11 6 E - 10
17.11.2018 21:00:00 26,0 24,0 9 5 ESE - 10
17.11.2018 20:00:00 26,3 24,1 9 5 ESE 1012,7 20
17.11.2018 19:00:00 27,0 24,0 11 6 E - 10
17.11.2018 18:00:00 27,0 25,0 15 8 E - 10
17.11.2018 17:00:00 27,5 23,9 18 10 ESE 1011,1 18
17.11.2018 16:00:00 28,0 25,0 18 10 ESE - 10
17.11.2018 15:00:00 31,0 24,0 18 10 ESE - 10
17.11.2018 14:00:00 30,9 24,2 18 10 ESE 1011,3 22
17.11.2018 13:00:00 31,0 23,0 18 10 E - 10
17.11.2018 12:00:00 31,0 22,0 24 13 ESE - 10
17.11.2018 11:00:00 31,4 22,3 22 12 ESE 1013,7 20
17.11.2018 10:00:00 30,0 24,0 21 11 ESE - 10
17.11.2018 09:00:00 29,0 25,0 15 8 ESE - 10
17.11.2018 08:00:00 26,4 24,3 0 0 N 1013,5 15
17.11.2018 07:00:00 25,0 23,0 0 0 N - 10
17.11.2018 06:00:00 25,0 23,0 9 5 E - 10
17.11.2018 05:00:00 24,3 23,3 13 7 SSE 1011,5 15
17.11.2018 04:00:00 24,0 23,0 0 0 N - 10
17.11.2018 03:00:00 24,0 23,0 0 0 N - 10
17.11.2018 02:00:00 24,7 23,5 0 0 N 1011,0 16
17.11.2018 01:00:00 25,0 24,0 0 0 N - 10
17.11.2018 00:00:00 25,0 24,0 0 0 N - 10
16.11.2018 23:00:00 25,3 23,6 0 0 N 1012,0 16
16.11.2018 22:00:00 25,0 24,0 0 0 N - 10
16.11.2018 21:00:00 25,0 24,0 0 0 N - 10
16.11.2018 20:00:00 25,8 23,7 0 0 N 1011,6 16
16.11.2018 19:00:00 27,0 24,0 9 5 E - 10
16.11.2018 18:00:00 27,0 24,0 11 6 ESE - 10
16.11.2018 17:00:00 28,2 22,8 16 9 ESE 1010,7 10
16.11.2018 16:00:00 29,0 24,0 26 14 E - 10
16.11.2018 15:00:00 29,0 24,0 22 12 ESE - 10
16.11.2018 14:00:00 30,0 22,8 24 13 ESE 1010,6 18
16.11.2018 13:00:00 31,0 24,0 24 13 SE - 10
16.11.2018 12:00:00 29,0 23,0 21 11 SE - 10
16.11.2018 11:00:00 28,7 25,6 15 8 ESE 1013,3 10
16.11.2018 10:00:00 29,0 26,0 15 8 SE - 10
16.11.2018 09:00:00 27,0 25,0 13 7 E - 10
16.11.2018 08:00:00 24,0 23,6 13 7 E 1013,7 2,0
16.11.2018 07:00:00 24,0 24,0 22 12 ESE - 3,2
16.11.2018 06:00:00 24,0 23,0 9 5 E - 10
16.11.2018 05:00:00 24,2 23,6 0 0 N 1011,3 8
16.11.2018 04:00:00 24,0 23,0 15 8 SE - 6
16.11.2018 03:00:00 26,0 23,0 0 0 N - 10
16.11.2018 02:00:00 24,7 24,1 8 4 ENE 1011,3 8
16.11.2018 01:00:00 25,0 24,0 11 6 SE - 10
16.11.2018 00:00:00 25,0 24,0 0 0 N - 10
15.11.2018 23:00:00 25,6 23,7 0 0 N 1012,4 16
15.11.2018 22:00:00 25,0 24,0 0 0 N - 10
15.11.2018 21:00:00 25,0 24,0 0 0 N - 10
15.11.2018 20:00:00 24,6 24,2 0 0 N 1012,4 7
15.11.2018 19:00:00 25,0 24,0 0 0 N - 6
15.11.2018 18:00:00 25,0 24,0 22 12 ESE - 5
15.11.2018 17:00:00 26,0 24,6 11 6 ESE 1010,5 7
15.11.2018 16:00:00 26,0 25,0 5 3 SSE - 10
15.11.2018 15:00:00 25,0 24,0 9 5 ENE - 6
15.11.2018 14:00:00 26,8 25,0 0 0 N 1011,1 6
15.11.2018 13:00:00 26,0 25,0 0 0 N - 6
15.11.2018 12:00:00 25,0 24,0 0 0 N - 7
15.11.2018 11:00:00 24,6 24,3 0 0 N 1013,7 8
15.11.2018 10:00:00 24,0 24,0 0 0 N - 0,8
15.11.2018 09:00:00 25,0 24,0 0 0 N - 8
15.11.2018 08:00:00 23,9 23,6 15 8 E 1013,3 5
15.11.2018 07:00:00 24,0 24,0 0 0 N - 5
15.11.2018 06:00:00 24,0 23,0 5 3 SE - 5
15.11.2018 05:00:00 24,5 23,3 28 15 SE 1010,6 5
15.11.2018 04:00:00 25,0 24,0 9 5 E - 10
15.11.2018 03:00:00 25,0 24,0 9 5 ESE - 8
15.11.2018 02:00:00 23,9 23,7 21 11 ESE 1010,8 2,0
15.11.2018 01:00:00 24,0 24,0 0 0 N - 8
15.11.2018 00:00:00 25,0 24,0 18 10 ESE - 6
14.11.2018 23:00:00 24,5 23,7 0 0 N 1012,1 6
14.11.2018 22:00:00 25,0 23,0 21 11 ESE - 6
14.11.2018 21:00:00 25,0 25,0 0 0 N - 10
14.11.2018 20:00:00 25,3 24,5 9 5 ESE 1011,1 12
14.11.2018 19:00:00 25,0 24,0 9 5 E - 10
14.11.2018 18:00:00 25,0 24,0 13 7 SE - 10
14.11.2018 17:00:00 26,3 24,7 11 6 ESE 1009,6 10
14.11.2018 16:00:00 26,0 25,0 13 7 ESE - 10
14.11.2018 15:00:00 25,0 24,0 16 9 E - 10
14.11.2018 14:00:00 25,5 24,5 18 10 ESE 1010,8 4,0
14.11.2018 13:00:00 25,0 24,0 11 6 ESE - 8
14.11.2018 12:00:00 25,0 24,0 29 16 E - 1,0
14.11.2018 11:00:00 28,4 25,4 13 7 E 1012,8 2,0
14.11.2018 10:00:00 29,0 25,0 11 6 SE - 7
14.11.2018 09:00:00 27,0 25,0 16 9 E - 9
14.11.2018 08:00:00 26,5 25,1 9 5 ESE 1012,5 6
14.11.2018 07:00:00 26,0 25,0 8 4 SSE - 10
14.11.2018 06:00:00 26,0 24,0 0 0 N - 10
14.11.2018 05:00:00 25,6 24,4 0 0 N 1010,5 12
14.11.2018 04:00:00 26,0 25,0 0 0 N - 10
14.11.2018 03:00:00 26,0 26,0 9 5 E - 10
14.11.2018 02:00:00 26,0 25,6 15 8 E 1010,1 14
14.11.2018 01:00:00 26,0 25,0 0 0 N - 10
14.11.2018 00:00:00 26,0 25,0 9 5 E - 10
13.11.2018 23:00:00 25,8 24,9 11 6 ESE 1011,5 15
13.11.2018 22:00:00 26,0 25,0 9 5 ESE - 10
13.11.2018 21:00:00 26,0 25,0 13 7 E - 10
13.11.2018 20:00:00 25,9 24,8 11 6 SE 1011,7 16
13.11.2018 19:00:00 26,0 25,0 15 8 E - 10
13.11.2018 18:00:00 26,0 25,0 11 6 E - 10
13.11.2018 17:00:00 28,1 24,6 16 9 E 1010,4 10
13.11.2018 16:00:00 28,0 26,0 8 4 SE - 10

tt = temperature
td = dewpoint
ff = wind speed
dd = wind direction
ppp = reduced air pressure
vv = visibility

Next stations